Location: Ocean City
(38.3360°N, 75.0850°W)
Time: 16:18:25
(UTC-05:00)

Explorer 11/Cluster Stage 4 - Pass Details

Date: 17 November 2019
Orbit: 467 x 1259 km, 28.8° (Epoch: 07 December)

Event Time Altitude Azimuth Distance (km) Brightness Sun altitude
Rises 18:30:49 0° 198° (SSW) 3,117 10.0 -20.4°
Reaches altitude 10° 18:35:17 10° 162° (SSE) 2,423 9.0 -21.3°
Enters shadow 18:36:42 11° 148° (SSE) 2,430 8.8 -21.6°
Maximum altitude 18:36:43 11° 148° (SSE) 2,431 - -21.6°
Drops below altitude 10° 18:38:13 10° 133° (SE) 2,568 - -21.9°
Sets 18:43:33 0° 100° (E) 3,762 - -22.9°
